Orange City, IA

5:08 AM CST on February 10, 2016 (GMT -0600)
Orange City Municipal

Weather History for KORC - December, 2013

Change the Weather History Date:

Monday, December 9, 2013

  Actual Average (KSUX) Record (KSUX)
Temperature  
Mean Temperature 4 °F 24 °F  
Max Temperature 15 °F 33 °F 63 °F (1957)
Min Temperature -7 °F 14 °F -16 °F (1958)
Degree Days  
Heating Degree Days 62 41  
Month to date heating degree days 356  
Since 1 July heating degree days 1832  
Cooling Degree Days 0 0  
Month to date cooling degree days 0  
Year to date cooling degree days 869  
Moisture  
Dew Point -7 °F    
Average Humidity 72    
Maximum Humidity 85    
Minimum Humidity 61    
Precipitation  
Precipitation 0.00 in 0.03 in 1.14 in (1899)
Month to date precipitation 0.28  
Year to date precipitation 27.22  
Snow  
Snow 0.00 in 0.20 in 3.20 in (1985)
Month to date snowfall 2.3  
Since 1 July snowfall 7.7  
Snow Depth -    
Sea Level Pressure  
Sea Level Pressure 30.08 in    
Wind  
Wind Speed 12 mph (WSW)    
Max Wind Speed 22 mph    
Max Gust Speed 28 mph    
Visibility 10 miles    
Events Snow    
T = Trace of Precipitation, MM = Missing Value Source: NWS Daily Summary

Daily Weather History Graph

Daily Weather History Graph

Search for Another Location

Airport or City:

Trip Planner

Search our weather history database for the weather conditions in past years. The results will help you decide how hot, cold, wet, or windy it might be!

Date:

Astronomy

Dec. 09, 2013 Rise Set
Actual Time 7:43 AM CST 4:49 PM CST
Civil Twilight 7:11 AM CST 5:21 PM CST
Nautical Twilight 6:36 AM CST 5:57 PM CST
Astronomical Twilight 6:01 AM CST 6:31 PM CST
Moon 12:28 PM CST (12/9) No Moon Set
Length of Visible Light 10h 09m
Length of Day
9h 05m
Waxing Crescent, 51% of the Moon is Illuminated
Dec 9
Waxing Crescent
Dec 17
Full
Dec 25
Last Quarter
Jan 1
New
Jan 7
First Quarter

Hourly Weather History & Observations

Time (CST) Temp. Windchill Dew Point Humidity Pressure Visibility Wind Dir Wind Speed Gust Speed Precip Events Conditions
12:15 AM -0.4 °F -13.4 °F -5.8 °F 78% 30.08 in 10.0 mi West 6.9 mph - N/A   Clear
12:35 AM -0.4 °F -14.7 °F -4.0 °F 85% 30.07 in 10.0 mi West 8.1 mph - N/A   Scattered Clouds
1:35 AM -2.2 °F -16.8 °F -7.6 °F 78% 30.07 in 10.0 mi WNW 8.1 mph - N/A   Clear
1:55 AM -2.2 °F -18.9 °F -7.6 °F 78% 30.07 in 10.0 mi WNW 10.4 mph - N/A   Scattered Clouds
2:15 AM -2.2 °F -19.9 °F -7.6 °F 78% 30.08 in 10.0 mi WNW 11.5 mph - N/A   Scattered Clouds
2:35 AM -2.2 °F -19.9 °F -7.6 °F 78% 30.08 in 10.0 mi WNW 11.5 mph - N/A   Clear
2:55 AM -2.2 °F -21.5 °F -7.6 °F 78% 30.08 in 10.0 mi WNW 13.8 mph - N/A   Clear
3:15 AM -4.0 °F -23.0 °F -9.4 °F 78% 30.09 in 10.0 mi WNW 12.7 mph - N/A   Clear
3:35 AM -5.8 °F -26.8 °F -9.4 °F 84% 30.09 in 10.0 mi WNW 15.0 mph - N/A   Clear
3:55 AM -4.0 °F -25.8 °F -9.4 °F 78% 30.09 in 10.0 mi WNW 17.3 mph - N/A   Clear
4:35 AM -5.8 °F -27.5 °F -11.2 °F 77% 30.09 in 10.0 mi WNW 16.1 mph - N/A   Clear
4:55 AM -5.8 °F -27.5 °F -11.2 °F 77% 30.10 in 10.0 mi WNW 16.1 mph - N/A   Clear
5:15 AM -5.8 °F -27.5 °F -11.2 °F 77% 30.11 in 10.0 mi WNW 16.1 mph - N/A   Clear
5:35 AM -5.8 °F -24.4 °F -13.0 °F 71% 30.13 in 10.0 mi WNW 11.5 mph - N/A   Clear
5:55 AM -7.6 °F -24.6 °F -13.0 °F 77% 30.13 in 10.0 mi WNW 9.2 mph - N/A   Clear
6:15 AM -7.6 °F -25.7 °F -13.0 °F 77% 30.14 in 10.0 mi WNW 10.4 mph - N/A   Clear
6:35 AM -7.6 °F -28.3 °F -13.0 °F 77% 30.14 in 10.0 mi WNW 13.8 mph - N/A   Clear
6:55 AM -7.6 °F -28.3 °F -14.8 °F 71% 30.15 in 10.0 mi West 13.8 mph - N/A   Clear
7:15 AM -7.6 °F -28.3 °F -14.8 °F 71% 30.16 in 10.0 mi West 13.8 mph - N/A   Clear
7:35 AM -7.6 °F -29.1 °F -14.8 °F 71% 30.16 in 10.0 mi WNW 15.0 mph - N/A   Clear
7:55 AM -7.6 °F -28.3 °F -14.8 °F 71% 30.17 in 10.0 mi West 13.8 mph - N/A   Clear
8:15 AM -7.6 °F -27.5 °F -14.8 °F 71% 30.18 in 10.0 mi West 12.7 mph - N/A   Clear
8:35 AM -7.6 °F -29.1 °F -14.8 °F 71% 30.19 in 10.0 mi WNW 15.0 mph - N/A   Clear
8:55 AM -5.8 °F -27.5 °F -13.0 °F 71% 30.19 in 10.0 mi WNW 16.1 mph - N/A   Clear
9:15 AM -5.8 °F -26.8 °F -13.0 °F 71% 30.19 in 10.0 mi WNW 15.0 mph - N/A   Clear
9:35 AM -4.0 °F -23.7 °F -11.2 °F 71% 30.19 in 10.0 mi WNW 13.8 mph - N/A   Clear
9:42 AM -4.0 °F -24.5 °F -11.2 °F 71% 30.19 in 10.0 mi WNW 15.0 mph - N/A   Clear
9:55 AM -4.0 °F -24.5 °F -11.2 °F 71% 30.19 in 10.0 mi WNW 15.0 mph - N/A   Clear
10:15 AM -2.2 °F -21.5 °F -11.2 °F 66% 30.19 in 10.0 mi WNW 13.8 mph - N/A   Clear
10:35 AM -2.2 °F -22.2 °F -11.2 °F 66% 30.19 in 5.0 mi WNW 15.0 mph - N/A   Haze
10:55 AM -2.2 °F -22.9 °F -9.4 °F 71% 30.20 in 10.0 mi WNW 16.1 mph - N/A   Clear
11:15 AM -0.4 °F -19.2 °F -9.4 °F 66% 30.19 in 4.0 mi WNW 13.8 mph - N/A Snow Light Snow
11:35 AM -0.4 °F -19.9 °F -9.4 °F 66% 30.19 in 10.0 mi West 15.0 mph - N/A   Clear
11:55 AM -0.4 °F -19.2 °F -9.4 °F 66% 30.18 in 10.0 mi West 13.8 mph - N/A   Clear
12:15 PM 1.4 °F -15.3 °F -9.4 °F 61% 30.18 in 10.0 mi West 11.5 mph - N/A   Clear
12:35 PM 1.4 °F -16.9 °F -7.6 °F 66% 30.17 in 10.0 mi West 13.8 mph - N/A   Clear
12:55 PM 1.4 °F -16.9 °F -7.6 °F 66% 30.16 in 10.0 mi West 13.8 mph - N/A   Clear
1:15 PM 1.4 °F -16.1 °F -7.6 °F 66% 30.16 in 10.0 mi West 12.7 mph - N/A   Clear
1:35 PM 3.2 °F -14.6 °F -7.6 °F 61% 30.16 in 10.0 mi West 13.8 mph - N/A   Clear
1:55 PM 3.2 °F -13.9 °F -5.8 °F 66% 30.15 in 10.0 mi West 12.7 mph - N/A   Clear
2:15 PM 3.2 °F -13.1 °F -5.8 °F 66% 30.14 in 10.0 mi WSW 11.5 mph - N/A   Clear
2:35 PM 3.2 °F -12.2 °F -5.8 °F 66% 30.13 in 10.0 mi WSW 10.4 mph - N/A   Clear
2:55 PM 3.2 °F -13.1 °F -5.8 °F 66% 30.12 in 10.0 mi WSW 11.5 mph - N/A   Clear
3:15 PM 3.2 °F -11.3 °F -5.8 °F 66% 30.11 in 10.0 mi WSW 9.2 mph - N/A   Clear
3:35 PM 5.0 °F -9.1 °F -5.8 °F 61% 30.10 in 10.0 mi WSW 9.2 mph - N/A   Clear
3:55 PM 3.2 °F -10.3 °F -5.8 °F 66% 30.10 in 10.0 mi SW 8.1 mph - N/A   Clear
4:15 PM 3.2 °F -7.8 °F -5.8 °F 66% 30.09 in 10.0 mi SSW 5.8 mph - N/A   Clear
4:35 PM 3.2 °F -10.3 °F -5.8 °F 66% 30.09 in 10.0 mi SSW 8.1 mph - N/A   Clear
4:55 PM 3.2 °F -10.3 °F -5.8 °F 66% 30.09 in 10.0 mi SSW 8.1 mph - N/A   Clear
5:15 PM 1.4 °F -13.5 °F -5.8 °F 72% 30.08 in 10.0 mi SW 9.2 mph - N/A   Clear
5:35 PM 1.4 °F -11.3 °F -7.6 °F 66% 30.08 in 10.0 mi SSW 6.9 mph - N/A   Clear
5:55 PM -0.4 °F -16.7 °F -7.6 °F 72% 30.06 in 10.0 mi South 10.4 mph - N/A   Clear
6:15 PM -0.4 °F -16.7 °F -7.6 °F 72% 30.05 in 10.0 mi South 10.4 mph - N/A   Clear
6:35 PM 1.4 °F -16.9 °F -5.8 °F 72% 30.02 in 10.0 mi South 13.8 mph - N/A   Clear
6:55 PM 1.4 °F -17.6 °F -5.8 °F 72% 30.00 in 10.0 mi South 15.0 mph - N/A   Clear
7:15 PM 1.4 °F -17.6 °F -5.8 °F 72% 30.00 in 10.0 mi SSW 15.0 mph - N/A   Clear
7:35 PM 3.2 °F -15.9 °F -2.2 °F 78% 29.99 in 10.0 mi South 16.1 mph - N/A   Clear
7:55 PM 3.2 °F -15.9 °F -2.2 °F 78% 29.98 in 10.0 mi South 16.1 mph 23.0 mph N/A   Clear
8:15 PM 5.0 °F -15.2 °F -0.4 °F 78% 29.97 in 10.0 mi SSW 19.6 mph 24.2 mph N/A   Clear
8:35 PM 6.8 °F -13.8 °F -0.4 °F 72% 29.95 in 7.0 mi SSW 21.9 mph - N/A   Clear
8:55 PM 6.8 °F -13.4 °F -0.4 °F 72% 29.93 in 10.0 mi SSW 20.7 mph 27.6 mph N/A   Clear
9:15 PM 6.8 °F -13.8 °F 1.4 °F 79% 29.92 in 10.0 mi SSW 21.9 mph - N/A   Clear
9:35 PM 6.8 °F -11.3 °F 1.4 °F 79% 29.91 in 10.0 mi SSW 16.1 mph - N/A   Clear
9:55 PM 6.8 °F -11.3 °F 1.4 °F 79% 29.89 in 10.0 mi SSW 16.1 mph - N/A   Clear
10:15 PM 6.8 °F -11.3 °F 1.4 °F 79% 29.89 in 10.0 mi SSW 16.1 mph 20.7 mph N/A   Clear
10:35 PM 8.6 °F -9.5 °F 3.2 °F 79% 29.88 in 10.0 mi SW 17.3 mph - N/A   Mostly Cloudy
10:55 PM 10.4 °F -8.2 °F 5.0 °F 79% 29.88 in 10.0 mi SW 19.6 mph 25.3 mph N/A   Overcast
11:15 PM 12.2 °F -5.3 °F 6.8 °F 79% 29.87 in 10.0 mi SW 18.4 mph 26.5 mph N/A   Overcast
11:35 PM 14.0 °F -3.9 °F 6.8 °F 73% 29.86 in 10.0 mi SW 20.7 mph 24.2 mph N/A   Overcast
11:55 PM 15.8 °F -1.1 °F 6.8 °F 68% 29.86 in 10.0 mi SW 19.6 mph 26.5 mph N/A   Scattered Clouds